FW0958 Weather Reports


Display with metric or nautical units.
time (UTC)temp
F
wind
direction
speed
MPH
gust
MPH
rain 1hr
in
rain 24hr
in
rain mn
in
humidity
%
barometer
mb
20260902181451 83 279 0.0 3.0 0.00 0.00 0.00 55 1015.9
20260902180951 82 307 0.0 3.0 0.00 0.00 0.00 56 1015.9
20260902180451 82 267 0.0 3.0 0.00 0.00 0.00 55 1015.9
20260902175950 82 267 1.0 7.0 0.00 0.00 0.00 54 1016.0
20260902175457 81 255 2.0 5.0 0.00 0.00 0.00 57 1016.0
20260902175452 81 268 2.0 7.0 0.00 0.00 0.00 58 1016.0
20260902174451 80 287 2.0 6.0 0.00 0.00 0.00 59 1016.0
20260902173951 79 301 2.0 7.0 0.00 0.00 0.00 62 1016.1
20260902173452 79 272 1.0 7.0 0.00 0.00 0.00 62 1016.0
20260902172951 78 305 1.0 4.0 0.00 0.00 0.00 64 1016.1
20260902172451 77 243 1.0 4.0 0.00 0.00 0.00 64 1016.0
20260902171948 77 248 0.0 3.0 0.00 0.00 0.00 67 1016.0
20260902171448 77 240 0.0 2.0 0.00 0.00 0.00 69 1016.0
20260902170954 76 262 0.0 2.0 0.00 0.00 0.00 71 1016.1
20260902170950 76 263 0.0 0.0 0.00 0.00 0.00 69 1016.0
20260902165953 74 267 1.0 4.0 0.00 0.00 0.00 73 1016.1
20260902165949 74 263 0.0 3.0 0.00 0.00 0.00 72 1016.0
20260902164948 74 267 1.0 4.0 0.00 0.00 0.00 74 1016.1
20260902164457 72 286 1.0 3.0 0.00 0.00 0.00 78 1016.3
20260902164448 73 276 1.0 4.0 0.00 0.00 0.00 75 1016.0
20260902163948 73 284 1.0 4.0 0.00 0.00 0.00 76 1016.1
20260902163447 72 287 2.0 4.0 0.00 0.00 0.00 78 1016.2
20260902162452 70 286 0.0 4.0 0.00 0.00 0.00 80 1016.2
20260902162447 71 286 1.0 4.0 0.00 0.00 0.00 79 1016.2
20260902161453 71 272 0.0 2.0 0.00 0.00 0.00 80 1016.3
20260902161447 70 285 0.0 2.0 0.00 0.00 0.00 81 1016.1
20260902161104 70 138 0.0 0.0 0.00 0.00 0.00 81 1016.2
20260902155948 69 140 0.0 0.0 0.00 0.00 0.00 81 1016.1
20260902155447 69 140 0.0 0.0 0.00 0.00 0.00 81 1016.2
20260902154951 68 109 0.0 2.0 0.00 0.00 0.00 83 1016.4
20260902154947 69 112 0.0 0.0 0.00 0.00 0.00 82 1016.4
20260902153945 66 109 0.0 2.0 0.00 0.00 0.00 84 1016.3
20260902153449 65 109 0.0 0.0 0.00 0.00 0.00 85 1016.3
20260902153444 66 109 0.0 0.0 0.00 0.00 0.00 84 1016.3
20260902152444 65 109 0.0 0.0 0.00 0.00 0.00 86 1016.1
20260902151945 64 109 0.0 0.0 0.00 0.00 0.00 86 1016.2
20260902151446 64 109 0.0 0.0 0.00 0.00 0.00 86 1016.3
20260902150944 64 109 0.0 0.0 0.00 0.00 0.00 86 1016.5
20260902150443 63 109 0.0 0.0 0.00 0.00 0.00 86 1016.3
20260902145944 63 110 0.0 0.0 0.00 0.00 0.00 86 1016.3
20260902145443 62 110 0.0 0.0 0.00 0.00 0.00 86 1016.3
20260902144942 62 110 0.0 0.0 0.00 0.00 0.00 86 1016.4
20260902144447 61 102 0.0 0.0 0.00 0.00 0.00 86 1016.3
20260902144443 61 109 0.0 0.0 0.00 0.00 0.00 86 1016.4
20260902144103 61 97 0.0 0.0 0.00 0.00 0.00 86 1016.4
20260902143603 61 97 0.0 0.0 0.00 0.00 0.00 86 1016.4
20260902142441 61 97 0.0 0.0 0.00 0.00 0.00 85 1016.4
20260902141948 60 97 0.0 0.0 0.00 0.00 0.00 85 1016.1
20260902141943 61 97 0.0 0.0 0.00 0.00 0.00 85 1016.2
20260902140943 61 97 0.0 0.0 0.00 0.00 0.00 85 1016.2
20260902140442 60 97 0.0 0.0 0.00 0.00 0.00 86 1016.0
20260902135945 60 97 0.0 0.0 0.00 0.00 0.00 85 1015.8
20260902135941 60 97 0.0 0.0 0.00 0.00 0.00 85 1015.8
20260902134943 60 97 0.0 0.0 0.00 0.00 0.00 85 1015.8
20260902134939 60 97 0.0 0.0 0.00 0.00 0.00 85 1015.8
20260902133936 60 97 0.0 0.0 0.00 0.00 0.00 85 1015.7
20260902133440 61 97 0.0 0.0 0.00 0.00 0.00 84 1015.5
20260902133434 60 97 0.0 0.0 0.00 0.00 0.00 84 1015.6
20260902132935 60 97 0.0 0.0 0.00 0.00 0.00 84 1015.6
20260902131935 61 125 0.0 0.0 0.00 0.00 0.00 84 1015.5
20260902131435 61 125 0.0 0.0 0.00 0.00 0.00 83 1015.6
20260902130933 61 125 0.0 0.0 0.00 0.00 0.00 83 1015.5
20260902130434 62 141 0.0 0.0 0.00 0.00 0.00 83 1015.5
20260902125942 63 304 0.0 0.0 0.00 0.00 0.00 83 1015.3
20260902125936 62 277 0.0 0.0 0.00 0.00 0.00 83 1015.3
20260902125435 63 304 0.0 0.0 0.00 0.00 0.00 83 1015.4
20260902124934 63 304 0.0 0.0 0.00 0.00 0.00 84 1015.3
20260902123935 63 304 0.0 0.0 0.00 0.00 0.00 83 1015.3
20260902123435 63 304 0.0 0.0 0.00 0.00 0.00 83 1015.4
20260902122934 63 304 0.0 0.0 0.00 0.00 0.00 83 1015.3
20260902122440 63 304 0.0 0.0 0.00 0.00 0.00 83 1015.4
20260902122435 63 304 0.0 0.0 0.00 0.00 0.00 83 1015.4
20260902121434 63 304 0.0 0.0 0.00 0.00 0.00 83 1015.3
20260902120935 63 304 0.0 0.0 0.00 0.00 0.00 83 1015.2
20260902120433 63 304 0.0 0.0 0.00 0.00 0.00 83 1015.2
20260902115933 63 304 0.0 0.0 0.00 0.00 0.00 84 1015.3
20260902115440 64 304 0.0 0.0 0.00 0.00 0.00 84 1015.4
20260902115436 63 304 0.0 0.0 0.00 0.00 0.00 84 1015.3
20260902114435 64 304 0.0 0.0 0.00 0.00 0.00 84 1015.4
20260902113938 64 304 0.0 0.0 0.00 0.00 0.00 84 1015.4
20260902113932 64 304 0.0 0.0 0.00 0.00 0.00 85 1015.5
20260902113551 64 304 0.0 0.0 0.00 0.00 0.00 84 1015.3
20260902113051 64 304 0.0 0.0 0.00 0.00 0.00 85 1015.3
20260902112432 64 304 0.0 0.0 0.00 0.00 0.00 84 1015.3
20260902111933 64 304 0.0 0.0 0.00 0.00 0.00 85 1015.3
20260902110932 64 304 0.0 0.0 0.00 0.00 0.00 85 1015.3
20260902110432 64 304 0.0 0.0 0.00 0.00 0.00 85 1015.4
20260902105931 64 304 0.0 0.0 0.00 0.00 0.00 85 1015.3
20260902105438 64 304 0.0 0.0 0.00 0.00 0.00 85 1015.5
20260902105433 64 304 0.0 0.0 0.00 0.00 0.00 85 1015.4
20260902105050 64 304 0.0 0.0 0.00 0.00 0.00 86 1015.5
20260902104430 64 304 0.0 0.0 0.00 0.00 0.00 86 1015.4
20260902103434 64 304 0.0 0.0 0.00 0.00 0.00 86 1015.7
20260902103429 64 304 0.0 0.0 0.00 0.00 0.00 86 1015.5
20260902102430 64 304 0.0 0.0 0.00 0.00 0.00 86 1015.7
20260902101930 64 304 0.0 0.0 0.00 0.00 0.00 86 1015.7
20260902101430 64 304 0.0 0.0 0.00 0.00 0.00 86 1015.7
20260902100930 64 304 0.0 0.0 0.00 0.00 0.00 87 1015.8
20260902100429 64 304 0.0 0.0 0.00 0.00 0.00 87 1015.8
20260902095929 64 304 0.0 0.0 0.00 0.00 0.00 87 1015.8
20260902095427 64 304 0.0 1.0 0.00 0.00 0.00 87 1015.8
20260902094934 63 304 0.0 1.0 0.00 0.00 0.00 87 1015.8
20260902094927 63 304 0.0 1.0 0.00 0.00 0.00 87 1015.9
20260902094428 63 304 0.0 1.0 0.00 0.00 0.00 87 1015.8
20260902093428 63 304 0.0 0.0 0.00 0.00 0.00 87 1015.9
20260902092927 63 304 0.0 2.0 0.00 0.00 0.00 87 1015.8
20260902092427 63 304 0.0 2.0 0.00 0.00 0.00 87 1015.9
20260902091927 64 304 0.0 2.0 0.00 0.00 0.00 87 1016.0
20260902091427 64 304 0.0 2.0 0.00 0.00 0.00 88 1016.0
20260902090927 64 304 0.0 2.0 0.00 0.00 0.00 88 1016.1
20260902090425 64 304 0.0 2.0 0.00 0.00 0.00 88 1016.0
20260902085927 64 304 0.0 0.0 0.00 0.00 0.00 88 1016.0
20260902085426 64 304 0.0 0.0 0.00 0.00 0.00 89 1016.0
20260902084930 64 304 0.0 0.0 0.00 0.00 0.00 89 1016.0
20260902084926 64 304 0.0 0.0 0.00 0.00 0.00 88 1016.0
20260902083925 64 304 0.0 0.0 0.00 0.00 0.00 89 1016.1
20260902083431 64 304 0.0 0.0 0.00 0.00 0.00 89 1016.0
20260902083426 64 304 0.0 0.0 0.00 0.00 0.00 89 1016.0
20260902082925 64 304 0.0 0.0 0.00 0.00 0.00 89 1016.0
20260902082424 64 304 0.0 0.0 0.00 0.00 0.00 89 1016.1
20260902082044 64 304 0.0 0.0 0.00 0.00 0.00 90 1016.1
20260902080924 64 304 0.0 0.0 0.00 0.00 0.00 89 1016.1
20260902080424 64 304 0.0 0.0 0.00 0.00 0.00 89 1016.0
20260902075923 64 304 0.0 0.0 0.00 0.00 0.00 89 1016.0
20260902075424 64 304 0.0 0.0 0.00 0.00 0.00 89 1015.9
20260902074928 64 304 0.0 0.0 0.00 0.00 0.00 89 1016.0
20260902074922 64 304 0.0 0.0 0.00 0.00 0.00 89 1016.0
20260902073924 64 304 0.0 0.0 0.00 0.00 0.00 89 1016.0
20260902073430 65 304 0.0 0.0 0.00 0.00 0.00 89 1015.9
20260902073424 64 304 0.0 0.0 0.00 0.00 0.00 89 1016.0
20260902072430 65 304 0.0 0.0 0.00 0.00 0.00 89 1015.8
20260902072422 65 304 0.0 0.0 0.00 0.00 0.00 89 1015.9
20260902071923 65 304 0.0 0.0 0.00 0.00 0.00 89 1015.9
20260902071540 65 304 0.0 0.0 0.00 0.00 0.00 89 1015.7
20260902070421 66 304 0.0 0.0 0.00 0.00 0.00 89 1015.8
20260902065924 65 304 0.0 0.0 0.00 0.00 0.00 89 1015.8
20260902065920 65 304 0.0 0.0 0.00 0.00 0.00 89 1015.8
20260902064921 66 304 0.0 0.0 0.00 0.00 0.00 88 1015.7
20260902064420 66 304 0.0 0.0 0.00 0.00 0.00 88 1015.7
20260902063923 66 304 0.0 0.0 0.00 0.00 0.00 88 1015.6
20260902063918 66 304 0.0 0.0 0.00 0.00 0.00 89 1015.5
20260902062924 66 304 0.0 0.0 0.00 0.00 0.00 88 1015.5
20260902062920 66 304 0.0 0.0 0.00 0.00 0.00 89 1015.5
20260902061920 66 304 0.0 0.0 0.00 0.00 0.00 88 1015.5
20260902061419 66 304 0.0 0.0 0.00 0.00 0.00 88 1015.3
20260902060919 66 304 0.0 0.0 0.00 0.00 0.00 88 1015.4
20260902060420 66 304 0.0 0.0 0.00 0.00 0.00 88 1015.4
20260902055918 67 304 0.0 0.0 0.00 0.00 0.00 88 1015.3
20260902055416 67 304 0.0 0.0 0.00 0.00 0.00 87 1015.4
20260902054916 67 304 0.0 0.0 0.00 0.00 0.00 87 1015.3
20260902054422 67 304 0.0 0.0 0.00 0.00 0.00 87 1015.4
20260902054417 67 304 0.0 0.0 0.00 0.00 0.00 87 1015.3
20260902053917 67 304 0.0 0.0 0.00 0.00 0.00 88 1015.4
20260902053540 67 304 0.0 0.0 0.00 0.00 0.00 87 1015.4
20260902053534 67 304 0.0 0.0 0.00 0.00 0.00 87 1015.4
20260902051915 68 304 0.0 2.0 0.00 0.00 0.00 87 1015.4
20260902051417 68 304 0.0 2.0 0.00 0.00 0.00 87 1015.5
20260902050917 68 304 1.0 4.0 0.00 0.00 0.00 86 1015.4
20260902050414 68 304 1.0 4.0 0.00 0.00 0.00 86 1015.4
20260902045915 68 301 0.0 0.0 0.00 0.00 0.00 85 1015.3
20260902045414 68 301 0.0 0.0 0.00 0.00 0.00 85 1015.3
20260902044915 68 301 0.0 0.0 0.00 0.00 0.00 84 1015.3
20260902044414 68 301 0.0 0.0 0.00 0.00 0.00 83 1015.3
20260902043914 68 301 0.0 0.0 0.00 0.00 0.00 84 1015.4
20260902043414 68 301 0.0 0.0 0.00 0.00 0.00 84 1015.4
20260902042914 68 301 0.0 0.0 0.00 0.00 0.00 84 1015.3
20260902042421 68 301 0.0 0.0 0.00 0.00 0.00 84 1015.0
20260902042415 68 301 0.0 0.0 0.00 0.00 0.00 84 1015.2
20260902041413 68 301 0.0 0.0 0.00 0.00 0.00 83 1015.0
20260902040913 69 301 0.0 0.0 0.00 0.00 0.00 83 1015.0
20260902040419 69 301 0.0 0.0 0.00 0.00 0.00 82 1014.7
20260902040414 69 301 0.0 0.0 0.00 0.00 0.00 83 1014.9
20260902035912 69 301 0.0 0.0 0.00 0.00 0.00 82 1014.7
20260902034912 69 301 0.0 0.0 0.00 0.00 0.00 82 1014.5
20260902034413 69 301 0.0 0.0 0.00 0.00 0.00 81 1014.5
20260902033912 69 301 0.0 0.0 0.00 0.00 0.00 81 1014.4
20260902033411 69 301 0.0 0.0 0.00 0.00 0.00 81 1014.2
20260902032913 69 301 0.0 2.0 0.00 0.00 0.00 81 1014.1
20260902032412 70 301 0.0 2.0 0.00 0.00 0.00 80 1014.1
20260902031917 70 301 1.0 4.0 0.00 0.00 0.00 79 1013.9
20260902031913 70 301 1.0 4.0 0.00 0.00 0.00 80 1013.9
20260902030917 70 300 0.0 3.0 0.00 0.00 0.00 78 1013.9
20260902030912 70 300 0.0 3.0 0.00 0.00 0.00 79 1013.9
20260902025911 71 300 1.0 4.0 0.00 0.00 0.00 77 1013.9
20260902025411 71 300 1.0 4.0 0.00 0.00 0.00 77 1013.9
20260902024913 71 299 2.0 4.0 0.00 0.00 0.00 77 1013.9
20260902024413 71 305 2.0 5.0 0.00 0.00 0.00 76 1013.9
20260902023912 72 293 1.0 5.0 0.00 0.00 0.00 75 1013.9
20260902023411 72 25 1.0 5.0 0.00 0.00 0.00 74 1013.8
20260902022911 72 325 2.0 7.0 0.00 0.00 0.00 73 1013.7
20260902022412 73 328 2.0 7.0 0.00 0.00 0.00 72 1013.6
20260902021912 73 293 3.0 7.0 0.00 0.00 0.00 71 1013.6
20260902021411 74 322 3.0 8.0 0.00 0.00 0.00 71 1013.6
20260902020911 74 313 2.0 8.0 0.00 0.00 0.00 69 1013.5
20260902020413 74 324 2.0 7.0 0.00 0.00 0.00 69 1013.5
20260902015911 74 327 3.0 7.0 0.00 0.00 0.00 68 1013.6
20260902015411 75 328 3.0 8.0 0.00 0.00 0.00 67 1013.6
20260902014909 75 341 3.0 8.0 0.00 0.00 0.00 67 1013.6
20260902014410 75 350 3.0 8.0 0.00 0.00 0.00 66 1013.5
20260902013910 76 311 3.0 8.0 0.00 0.00 0.00 65 1013.5
20260902013410 76 318 3.0 8.0 0.00 0.00 0.00 65 1013.5
20260902012909 76 318 3.0 10.0 0.00 0.00 0.00 64 1013.4
20260902012410 76 311 3.0 10.0 0.00 0.00 0.00 64 1013.5
20260902011910 77 307 3.0 8.0 0.00 0.00 0.00 62 1013.6
20260902011415 78 291 3.0 7.0 0.00 0.00 0.00 62 1013.5
20260902011411 77 303 3.0 8.0 0.00 0.00 0.00 63 1013.6
20260902010906 78 286 3.0 7.0 0.00 0.00 0.00 62 1013.5
20260902005905 79 285 3.0 7.0 0.00 0.00 0.00 62 1013.5
20260902005406 79 320 3.0 8.0 0.00 0.00 0.00 60 1013.6
20260902004905 80 347 3.0 8.0 0.00 0.00 0.00 58 1013.5
20260902004412 80 304 3.0 7.0 0.00 0.00 0.00 58 1013.4
20260902004407 80 307 3.0 7.0 0.00 0.00 0.00 58 1013.5
20260902004022 80 309 3.0 7.0 0.00 0.00 0.00 57 1013.5
20260902002903 81 301 3.0 7.0 0.00 0.00 0.00 57 1013.5
20260902002402 81 340 3.0 8.0 0.00 0.00 0.00 56 1013.4
20260902001906 82 327 4.0 10.0 0.00 0.00 0.00 54 1013.5
20260902001902 81 312 4.0 10.0 0.00 0.00 0.00 55 1013.5
20260902000859 82 335 4.0 9.0 0.00 0.00 0.00 57 1013.5
20260902000400 82 18 4.0 9.0 0.00 0.00 0.00 55 1013.4
20260901235859 83 23 4.0 9.0 0.00 0.00 0.00 54 1013.6
20260901235359 83 296 3.0 9.0 0.00 0.00 0.00 53 1013.6
20260901234904 83 3 5.0 10.0 0.00 0.00 0.00 52 1013.7
20260901234859 83 351 4.0 10.0 0.00 0.00 0.00 55 1013.5
20260901234518 83 341 4.0 10.0 0.00 0.00 0.00 51 1013.6
20260901233357 84 357 3.0 10.0 0.00 0.00 0.00 54 1013.7
20260901232903 84 282 4.0 10.0 0.00 0.00 0.00 55 1013.8
20260901232857 84 288 4.0 10.0 0.00 0.00 0.00 54 1013.7
20260901231857 84 340 4.0 11.0 0.00 0.00 0.00 53 1013.7
20260901231357 85 341 4.0 12.0 0.00 0.00 0.00 50 1013.7
20260901230857 84 318 5.0 13.0 0.00 0.00 0.00 53 1013.6
20260901230358 85 317 5.0 13.0 0.00 0.00 0.00 54 1013.6
20260901225858 84 280 5.0 10.0 0.00 0.00 0.00 54 1013.6
20260901225355 85 39 5.0 12.0 0.00 0.00 0.00 53 1013.8
20260901224857 85 326 4.0 12.0 0.00 0.00 0.00 50 1013.7
20260901224355 86 295 4.0 10.0 0.00 0.00 0.00 51 1013.7
20260901223856 85 334 5.0 12.0 0.00 0.00 0.00 52 1013.6
20260901223356 85 39 5.0 12.0 0.00 0.00 0.00 50 1013.7
20260901222857 85 34 5.0 12.0 0.00 0.00 0.00 50 1013.7
20260901222356 86 18 4.0 10.0 0.00 0.00 0.00 49 1013.7
20260901221856 87 7 5.0 13.0 0.00 0.00 0.00 48 1013.6
20260901221357 87 1 5.0 13.0 0.00 0.00 0.00 47 1013.8
20260901220857 87 284 5.0 12.0 0.00 0.00 0.00 45 1013.8
20260901220851 87 290 5.0 11.0 0.00 0.00 0.00 45 1013.8
20260901215849 88 297 5.0 11.0 0.00 0.00 0.00 45 1013.8
20260901215350 87 287 5.0 11.0 0.00 0.00 0.00 47 1013.8
20260901214850 87 291 5.0 11.0 0.00 0.00 0.00 47 1013.8
20260901214349 88 12 5.0 12.0 0.00 0.00 0.00 44 1014.0
20260901213849 88 322 5.0 12.0 0.00 0.00 0.00 45 1013.9
20260901213350 88 315 4.0 12.0 0.00 0.00 0.00 45 1013.9
20260901212855 88 309 5.0 11.0 0.00 0.00 0.00 45 1014.0
20260901212848 89 325 4.0 11.0 0.00 0.00 0.00 44 1013.9
20260901212349 88 318 5.0 11.0 0.00 0.00 0.00 45 1013.9
20260901211348 89 330 5.0 11.0 0.00 0.00 0.00 45 1014.0
20260901210849 89 340 5.0 11.0 0.00 0.00 0.00 45 1014.0
20260901210351 88 319 6.0 14.0 0.00 0.00 0.00 45 1013.9
20260901205854 89 263 4.0 11.0 0.00 0.00 0.00 45 1014.0
20260901205849 89 343 5.0 14.0 0.00 0.00 0.00 45 1014.0
20260901204850 89 44 4.0 11.0 0.00 0.00 0.00 46 1014.0
20260901204400 89 344 4.0 10.0 0.00 0.00 0.00 46 1013.9
20260901204354 89 321 4.0 10.0 0.00 0.00 0.00 47 1014.0
20260901203346 89 315 5.0 10.0 0.00 0.00 0.00 46 1013.9
20260901202849 89 331 5.0 11.0 0.00 0.00 0.00 46 1014.1
20260901202845 88 313 5.0 11.0 0.00 0.00 0.00 48 1014.1
20260901201846 89 340 5.0 10.0 0.00 0.00 0.00 47 1014.2
20260901201345 89 305 5.0 11.0 0.00 0.00 0.00 47 1014.1
20260901200847 89 305 5.0 11.0 0.00 0.00 0.00 47 1014.4
20260901200346 89 4 5.0 12.0 0.00 0.00 0.00 48 1014.4
20260901195846 90 313 5.0 12.0 0.00 0.00 0.00 48 1014.5
20260901195344 90 287 4.0 10.0 0.00 0.00 0.00 48 1014.4
20260901194850 90 317 3.0 8.0 0.00 0.00 0.00 46 1014.5
20260901194845 90 357 3.0 9.0 0.00 0.00 0.00 47 1014.5
20260901193846 90 298 4.0 11.0 0.00 0.00 0.00 47 1014.5
20260901193343 90 263 4.0 11.0 0.00 0.00 0.00 47 1014.6
20260901192843 89 282 4.0 9.0 0.00 0.00 0.00 46 1014.7
20260901192342 89 303 2.0 9.0 0.00 0.00 0.00 46 1014.7
20260901191843 88 305 1.0 9.0 0.00 0.00 0.00 45 1014.8
20260901191343 89 343 1.0 5.0 0.00 0.00 0.00 46 1014.7
20260901190842 88 324 1.0 5.0 0.00 0.00 0.00 45 1014.8
20260901190343 88 272 0.0 3.0 0.00 0.00 0.00 47 1014.8
20260901185844 88 307 0.0 0.0 0.00 0.00 0.00 47 1014.9
20260901185342 88 271 0.0 0.0 0.00 0.00 0.00 48 1014.8
20260901184842 88 330 0.0 0.0 0.00 0.00 0.00 49 1014.9
20260901184342 87 297 0.0 0.0 0.00 0.00 0.00 51 1014.9
20260901183844 87 318 0.0 0.0 0.00 0.00 0.00 52 1015.0
20260901183343 85 288 0.0 0.0 0.00 0.00 0.00 53 1015.0
20260901182840 86 285 0.0 0.0 0.00 0.00 0.00 52 1015.1
20260901182342 86 320 0.0 0.0 0.00 0.00 0.00 53 1015.1
20260901181847 84 232 0.0 0.0 0.00 0.00 0.00 60 1015.1
20260901181840 85 353 0.0 0.0 0.00 0.00 0.00 56 1015.1